Regional Weather Roundup
Issued by NWS

Home | Current Version | Previous Version | Graphics & Text | Print | Product List | Glossary Off
Versions: 1 2 3 4 5 6 7 8 9 10 11 12 13 14 15 16 17 18 19 20 21 22 23 24 25 26 27 28 29 30 31 32 33 34 35 36 37 38 39 40 41 42 43 44 45 46 47 48 49 50

000
ASUS43 KTOP 242308
RWRKS

WEATHER ROUNDUP FOR KANSAS
NATIONAL WEATHER SERVICE GOODLAND KS
600 PM CDT SAT JUN 24 2017

NOTE:  "FAIR" INDICATES FEW OR NO CLOUDS BELOW 12,000 FEET WITH NO
SIGNIFICANT WEATHER AND/OR OBSTRUCTIONS TO VISIBILITY.

KSZ001>006-013>018-027>032-041>047-250000-
NORTHWEST KANSAS

CITY           SKY/WX    TMP DP  RH WIND       PRES   REMARKS
GOODLAND       CLOUDY    73  50  44 SE9       30.23F
HAYS           CLOUDY    79  53  40 NE5       30.19F
HILL CITY      CLOUDY    76  53  44 E6        30.21S
RUSSELL        MOSUNNY   81  50  33 NE12      30.17F
$$

KSZ061>065-074>080-084>089-250000-
SOUTHWEST KANSAS

CITY           SKY/WX    TMP DP  RH WIND       PRES   REMARKS
DODGE CITY     MOSUNNY   80  51  36 SW8       30.20F
GARDEN CITY    MOSUNNY   79  49  34 SW10      30.21F
GREAT BEND     CLOUDY    80  51  36 N3        30.18F
LIBERAL        PTSUNNY   78  50  37 VRB7      30.20F
PRATT          MOSUNNY   79  45  30 SW7       30.18F
$$

KSZ066>073-081>083-090>101-250000-
SOUTHEAST KANSAS

CITY           SKY/WX    TMP DP  RH WIND       PRES   REMARKS
CHANUTE        SUNNY     82  47  29 N9        30.17F
COFFEYVILLE    SUNNY     84  51  31 N10       30.15F
HUTCHINSON     MOSUNNY   85  51  31 N8        30.16F
MEDICINE LODGE   N/A     83  51  33 S8        30.16F
NEWTON         SUNNY     81  50  33 E7        30.18F
PARSONS        SUNNY     83  49  30 N6        30.17F
WICHITA INTL   MOSUNNY   82  53  36 E7        30.15F
WICHITA JABRA  SUNNY     82  53  36 E7        30.16F
WICHITA MCCONL SUNNY     82  51  33 E7        30.16F
WINFIELD       SUNNY     82  51  34 VRB6      30.17F
$$

KSZ007>012-019>026-033>040-048>060-102>105-250000-
NORTHEAST KANSAS

CITY           SKY/WX    TMP DP  RH WIND       PRES   REMARKS
CONCORDIA      CLOUDY    77  39  25 N8        30.20S
EMPORIA        SUNNY     79  47  32 N6        30.18F
LAWRENCE       SUNNY     79  44  28 NW14      30.17F
MANHATTAN      PTSUNNY   79  43  27 VRB3      30.18F
MARYSVILLE     MOSUNNY   77  41  27 W8        30.18F
OLATHE IND     CLOUDY    76  47  35 NW10      30.18F
OLATHE EXE     MOSUNNY   76  43  30 NW13      30.18F
SALINA         CLOUDY    83  45  26 NW6       30.17F
TOPEKA BILLARD SUNNY     80  46  30 NW9       30.17F
TOPEKA FORBES  SUNNY     81  44  27 N10       30.18S
$$




USA.gov is the U.S. government's official web portal to all federal, state and local government web resources and services.